Marshfield, WI

8:59 PM CDT on April 29, 2017 (GMT -0500)
Marshfield Municipal

Weather History for KMFI - December, 2012

Change the Weather History Date:

Monday, December 10, 2012

  Actual Average Record
Temperature  
Mean Temperature 18 °F -  
Max Temperature 27 °F 28 °F 52 °F (2015)
Min Temperature 10 °F 12 °F -26 °F (1919)
Degree Days  
Heating Degree Days 46    
Moisture  
Dew Point 20 °F    
Average Humidity 89    
Maximum Humidity 96    
Minimum Humidity 78    
Precipitation  
Precipitation 0.01 in - - ()
Sea Level Pressure  
Sea Level Pressure 29.82 in    
Wind  
Wind Speed 9 mph (NNW)    
Max Wind Speed 14 mph    
Max Gust Speed 20 mph    
Visibility 7 miles    
Events Snow    
Averages and records for this station are not official NWS values.
T = Trace of Precipitation, MM = Missing Value Source: NWS Daily Summary

Daily Weather History Graph

Daily Weather History Graph

Search for Another Location

Airport or City:

Trip Planner

Search our weather history database for the weather conditions in past years. The results will help you decide how hot, cold, wet, or windy it might be!

Date:

Astronomy

Dec. 10, 2012 Rise Set
Actual Time 7:27 AM CST 4:20 PM CST
Civil Twilight 6:53 AM CST 4:53 PM CST
Nautical Twilight 6:16 AM CST 5:30 PM CST
Astronomical Twilight 5:41 AM CST 6:06 PM CST
Moon 4:06 AM CST (12/10) 2:13 PM CST (12/10)
Length of Visible Light 9h 59m
Length of Day
8h 53m
Waning Crescent, 10% of the Moon is Illuminated
Dec 10
Waning Crescent
Dec 13
New
Dec 19
First Quarter
Dec 28
Full
Jan 4
Last Quarter

Hourly Weather History & Observations

Time (CST) Temp. Windchill Dew Point Humidity Pressure Visibility Wind Dir Wind Speed Gust Speed Precip Events Conditions
12:14 AM 26.6 °F 16.8 °F 24.8 °F 93% 29.72 in 4.0 mi NE 10.4 mph - 0.01 in Snow Light Snow
12:25 AM 26.6 °F 16.2 °F 24.8 °F 93% 29.72 in 3.0 mi NE 11.5 mph - 0.01 in Snow Light Snow
12:39 AM 26.6 °F 15.2 °F 24.8 °F 93% 29.71 in 2.5 mi NE 13.8 mph - 0.01 in Snow Light Snow
12:54 AM 27.0 °F 18.0 °F 25.0 °F 92% 29.77 in 2.0 mi NE 9.2 mph - 0.01 in Snow Light Snow
12:59 AM 26.6 °F 16.2 °F 24.8 °F 93% 29.72 in 1.8 mi NE 11.5 mph - 0.00 in Snow Light Snow
1:19 AM 26.6 °F 16.8 °F 24.8 °F 93% 29.72 in 2.0 mi NNE 10.4 mph - 0.00 in Snow Light Snow
1:35 AM 26.6 °F 15.7 °F 24.8 °F 93% 29.72 in 2.0 mi NE 12.7 mph 19.6 mph 0.00 in Snow Light Snow
1:49 AM 26.6 °F 15.7 °F 23.0 °F 86% 29.73 in 1.8 mi NNE 12.7 mph - 0.00 in Snow Light Snow
1:54 AM 26.1 °F 16.2 °F 23.0 °F 88% 29.78 in 1.8 mi NNE 10.4 mph - 0.00 in Snow Light Snow
2:02 AM 26.6 °F 16.2 °F 23.0 °F 86% 29.73 in 2.0 mi NE 11.5 mph - 0.00 in Snow Light Snow
2:14 AM 26.6 °F 16.2 °F 23.0 °F 86% 29.73 in 1.2 mi NNE 11.5 mph - 0.00 in Snow Light Snow
2:39 AM 26.6 °F 17.5 °F 23.0 °F 86% 29.74 in 2.0 mi NNE 9.2 mph - 0.00 in Snow Light Snow
2:54 AM 25.0 °F 16.3 °F 23.0 °F 92% 29.79 in 2.5 mi NNE 8.1 mph - 0.00 in Snow Light Snow
3:04 AM 24.8 °F 16.1 °F 23.0 °F 93% 29.74 in 3.0 mi NNE 8.1 mph - 0.00 in Snow Light Snow
3:26 AM 24.8 °F 17.9 °F 23.0 °F 93% 29.74 in 5.0 mi NNE 5.8 mph - 0.00 in Snow Light Snow
3:54 AM 24.1 °F 16.0 °F 21.9 °F 91% 29.79 in 5.0 mi NNE 6.9 mph - 0.00 in Snow Light Snow
4:54 AM 21.9 °F 12.5 °F 19.9 °F 92% 29.81 in 10.0 mi North 8.1 mph - 0.00 in   Mostly Cloudy
5:54 AM 19.9 °F 10.1 °F 18.0 °F 92% 29.83 in 10.0 mi North 8.1 mph - N/A   Clear
6:54 AM 10.9 °F -1.8 °F 10.0 °F 96% 29.84 in 10.0 mi NNW 9.2 mph - N/A   Clear
7:54 AM 16.0 °F 6.3 °F 14.0 °F 92% 29.85 in 10.0 mi NNW 6.9 mph - N/A   Overcast
8:54 AM 14.0 °F 5.1 °F 12.9 °F 95% 29.87 in 7.0 mi NNW 5.8 mph - N/A   Clear
9:24 AM 17.6 °F 7.3 °F 15.8 °F 93% 29.81 in 10.0 mi NW 8.1 mph - N/A   Mostly Cloudy
9:38 AM 19.4 °F 9.5 °F 17.6 °F 93% 29.82 in 10.0 mi NW 8.1 mph - N/A   Mostly Cloudy
9:54 AM 21.0 °F 9.9 °F 19.9 °F 96% 29.88 in 8.0 mi NW 10.4 mph - N/A   Overcast
10:46 AM 24.8 °F 16.9 °F 21.2 °F 86% 29.82 in 10.0 mi NW 6.9 mph - N/A   Overcast
10:54 AM 24.1 °F 17.0 °F 21.9 °F 91% 29.88 in 10.0 mi NW 5.8 mph - N/A   Overcast
11:54 AM 26.1 °F 18.4 °F 21.9 °F 84% 29.86 in 10.0 mi NW 6.9 mph - N/A   Overcast
12:54 PM 27.0 °F 19.5 °F 21.0 °F 78% 29.86 in 10.0 mi WNW 6.9 mph - N/A   Overcast
1:03 PM 26.6 °F 18.2 °F 21.2 °F 80% 29.80 in 10.0 mi NW 8.1 mph - N/A   Overcast
1:50 PM 24.8 °F 15.3 °F 21.2 °F 86% 29.80 in 10.0 mi West 9.2 mph - N/A   Overcast
1:54 PM 25.0 °F 16.3 °F 21.0 °F 85% 29.86 in 10.0 mi West 8.1 mph - N/A   Overcast
2:22 PM 24.8 °F 15.3 °F 19.4 °F 80% 29.81 in 10.0 mi WNW 9.2 mph - N/A   Overcast
2:54 PM 21.9 °F 12.5 °F 19.0 °F 89% 29.88 in 10.0 mi West 8.1 mph - N/A   Overcast
3:54 PM 21.9 °F 13.4 °F 19.0 °F 89% 29.89 in 10.0 mi West 6.9 mph - N/A   Overcast
4:54 PM 21.9 °F 15.7 °F 19.0 °F 89% 29.90 in 10.0 mi West 4.6 mph - N/A   Overcast
5:54 PM 21.0 °F 13.4 °F 18.0 °F 88% 29.92 in 10.0 mi WSW 5.8 mph - N/A   Overcast
6:50 PM 19.4 °F 11.5 °F 17.6 °F 93% 29.86 in 8.0 mi West 5.8 mph - N/A   Overcast
6:54 PM 19.9 °F 12.1 °F 17.1 °F 89% 29.94 in 9.0 mi West 5.8 mph - N/A   Overcast
7:54 PM 19.0 °F 10.0 °F 15.1 °F 85% 29.94 in 5.0 mi West 6.9 mph - 0.00 in Snow Light Snow
8:05 PM 17.6 °F 10.7 °F 15.8 °F 93% 29.87 in 4.0 mi West 4.6 mph - 0.00 in Snow Light Snow
8:54 PM 17.1 °F 10.0 °F 15.1 °F 92% 29.94 in 4.0 mi West 4.6 mph - 0.00 in Snow Light Snow
9:42 PM 15.8 °F 8.6 °F 12.2 °F 86% 29.87 in 9.0 mi West 4.6 mph - 0.00 in   Overcast
9:54 PM 16.0 °F 8.8 °F 12.9 °F 88% 29.94 in 9.0 mi West 4.6 mph - 0.00 in   Overcast
10:54 PM 16.0 °F - 12.9 °F 88% 29.93 in 9.0 mi Calm Calm - N/A   Overcast
11:54 PM 16.0 °F - 12.9 °F 88% 29.92 in 7.0 mi Calm Calm - 0.00 in Snow Light Snow